Time,TemperatureF,DewpointF,PressureIn,WindDirection,WindDirectionDegrees,WindSpeedMPH,WindSpeedGustMPH,Humidity,HourlyPrecipIn,Conditions,Clouds,dailyrainin,SoftwareType,DateUTC
2013-10-13 00:02:00,-999.0,-99.9,30.07,WSW,243,2.0,5.0,-999,-99.99,,,-99.99,,2013-10-13 04:02:00,
2013-10-13 00:14:00,63.0,56.0,30.07,WSW,243,2.0,5.0,78,0.00,,,0.00,,2013-10-13 04:14:00,
2013-10-13 00:24:00,64.0,57.0,30.07,West,277,0.0,3.0,78,0.00,,,0.00,,2013-10-13 04:24:00,
2013-10-13 00:43:00,65.0,58.0,30.07,West,281,3.0,6.0,78,0.00,,,0.00,,2013-10-13 04:43:00,
2013-10-13 00:54:00,66.0,58.0,30.08,WNW,295,4.0,8.0,76,0.00,,,0.00,,2013-10-13 04:54:00,
2013-10-13 01:13:00,66.0,59.0,30.08,WNW,288,3.0,7.0,77,0.00,,,0.00,,2013-10-13 05:13:00,
2013-10-13 01:23:00,65.0,59.0,30.09,WNW,298,4.0,7.0,80,0.00,,,0.00,,2013-10-13 05:23:00,
2013-10-13 01:43:00,65.0,59.0,30.09,WNW,292,5.0,8.0,82,0.00,,,0.00,,2013-10-13 05:43:00,
2013-10-13 01:52:00,65.0,60.0,30.10,NW,319,4.0,8.0,84,0.00,,,0.00,,2013-10-13 05:52:00,
2013-10-13 02:12:00,65.0,60.0,30.10,NW,318,4.0,8.0,84,0.00,,,0.00,,2013-10-13 06:12:00,
2013-10-13 02:22:00,64.0,59.0,30.11,NW,309,2.0,4.0,85,0.00,,,0.00,,2013-10-13 06:22:00,
2013-10-13 02:42:00,63.0,59.0,30.11,NNW,340,3.0,6.0,87,0.00,,,0.00,,2013-10-13 06:42:00,
2013-10-13 02:52:00,63.0,58.0,30.12,NW,322,1.0,4.0,85,0.00,,,0.00,,2013-10-13 06:52:00,
2013-10-13 03:11:00,63.0,59.0,30.12,NW,313,4.0,8.0,86,0.00,,,0.00,,2013-10-13 07:11:00,
2013-10-13 03:22:00,63.0,58.0,30.13,NW,306,2.0,9.0,85,0.00,,,0.00,,2013-10-13 07:22:00,
2013-10-13 03:52:00,63.0,58.0,30.13,NNW,328,8.0,11.0,85,0.00,,,0.00,,2013-10-13 07:52:00,
2013-10-13 04:12:00,62.0,57.0,30.14,NNW,332,5.0,10.0,83,0.00,,,0.00,,2013-10-13 08:12:00,
2013-10-13 04:22:00,61.0,56.0,30.14,WNW,296,3.0,7.0,84,0.00,,,0.00,,2013-10-13 08:22:00,
2013-10-13 04:42:00,60.0,56.0,30.15,NW,321,4.0,8.0,86,0.00,,,0.00,,2013-10-13 08:42:00,
2013-10-13 04:52:00,59.0,54.0,30.16,NW,312,2.0,5.0,85,0.00,,,0.00,,2013-10-13 08:52:00,
2013-10-13 05:12:00,59.0,54.0,30.16,NW,316,3.0,6.0,85,0.00,,,0.00,,2013-10-13 09:12:00,
2013-10-13 05:22:00,59.0,54.0,30.17,NW,318,5.0,9.0,84,0.00,,,0.00,,2013-10-13 09:22:00,
2013-10-13 05:43:00,58.0,53.0,30.17,NW,323,4.0,7.0,83,0.00,,,0.00,,2013-10-13 09:43:00,
2013-10-13 05:53:00,57.0,52.0,30.18,NW,317,4.0,8.0,83,0.00,,,0.00,,2013-10-13 09:53:00,
2013-10-13 06:13:00,57.0,52.0,30.19,NW,307,4.0,7.0,84,0.00,,,0.00,,2013-10-13 10:13:00,
2013-10-13 06:23:00,56.0,51.0,30.19,NW,326,4.0,7.0,84,0.00,,,0.00,,2013-10-13 10:23:00,
2013-10-13 06:43:00,56.0,51.0,30.19,NW,322,3.0,7.0,83,0.00,,,0.00,,2013-10-13 10:43:00,
2013-10-13 06:53:00,55.0,51.0,30.20,NNW,342,3.0,6.0,85,0.00,,,0.00,,2013-10-13 10:53:00,
2013-10-13 07:12:00,55.0,50.0,30.20,NNW,332,0.0,4.0,84,0.00,,,0.00,,2013-10-13 11:12:00,
2013-10-13 07:22:00,53.0,49.0,30.21,NNW,332,0.0,1.0,87,0.00,,,0.00,,2013-10-13 11:22:00,
2013-10-13 07:33:00,53.0,49.0,30.21,NNW,332,0.0,1.0,87,0.00,,,0.00,,2013-10-13 11:33:00,
2013-10-13 07:42:00,53.0,49.0,30.21,NNW,332,0.0,1.0,87,0.00,,,0.00,,2013-10-13 11:42:00,
2013-10-13 07:52:00,52.0,49.0,30.22,NNW,332,0.0,1.0,88,0.00,,,0.00,,2013-10-13 11:52:00,
2013-10-13 08:12:00,49.0,46.0,30.22,NNW,332,0.0,2.0,90,0.00,,,0.00,,2013-10-13 12:12:00,
2013-10-13 08:22:00,49.0,46.0,30.23,NNW,332,0.0,2.0,91,0.00,,,0.00,,2013-10-13 12:22:00,
2013-10-13 08:42:00,49.0,47.0,30.23,NNW,331,0.0,3.0,93,0.00,,,0.00,,2013-10-13 12:42:00,
2013-10-13 08:52:00,49.0,47.0,30.24,NNW,331,1.0,3.0,93,0.00,,,0.00,,2013-10-13 12:52:00,
2013-10-13 09:12:00,51.0,49.0,30.24,NW,311,1.0,4.0,94,0.00,,,0.00,,2013-10-13 13:12:00,
2013-10-13 09:22:00,53.0,50.0,30.24,NW,311,3.0,5.0,91,0.00,,,0.00,,2013-10-13 13:22:00,
2013-10-13 09:42:00,55.0,52.0,30.25,NW,325,4.0,6.0,88,0.00,,,0.00,,2013-10-13 13:42:00,
2013-10-13 09:52:00,56.0,51.0,30.26,NNW,329,4.0,8.0,83,0.00,,,0.00,,2013-10-13 13:52:00,
2013-10-13 10:11:00,57.0,51.0,30.26,NNW,338,3.0,8.0,80,0.00,,,0.00,,2013-10-13 14:11:00,
2013-10-13 10:22:00,58.0,50.0,30.27,NNW,344,4.0,8.0,75,0.00,,,0.00,,2013-10-13 14:22:00,
2013-10-13 10:42:00,59.0,49.0,30.27,NNE,27,5.0,9.0,69,0.00,,,0.00,,2013-10-13 14:42:00,
2013-10-13 10:52:00,60.0,48.0,30.27,NNW,333,3.0,8.0,64,0.00,,,0.00,,2013-10-13 14:52:00,
2013-10-13 11:12:00,61.0,46.0,30.28,NNW,346,4.0,10.0,57,0.00,,,0.00,,2013-10-13 15:12:00,
2013-10-13 11:22:00,62.0,45.0,30.28,NNW,327,7.0,13.0,53,0.00,,,0.00,,2013-10-13 15:22:00,
2013-10-13 11:43:00,63.0,47.0,30.29,NNW,329,3.0,9.0,55,0.00,,,0.00,,2013-10-13 15:43:00,
2013-10-13 11:54:00,63.0,45.0,30.29,NW,321,6.0,12.0,52,0.00,,,0.00,,2013-10-13 15:54:00,
2013-10-13 12:13:00,64.0,44.0,30.29,NNW,340,5.0,10.0,48,0.00,,,0.00,,2013-10-13 16:13:00,
2013-10-13 12:24:00,64.0,45.0,30.29,NNW,347,4.0,9.0,51,0.00,,,0.00,,2013-10-13 16:24:00,
2013-10-13 12:43:00,65.0,45.0,30.28,NNE,15,5.0,11.0,49,0.00,,,0.00,,2013-10-13 16:43:00,
2013-10-13 12:54:00,66.0,44.0,30.28,NW,314,8.0,12.0,45,0.00,,,0.00,,2013-10-13 16:54:00,
2013-10-13 13:13:00,66.0,46.0,30.28,NNW,342,6.0,12.0,48,0.00,,,0.00,,2013-10-13 17:13:00,
2013-10-13 13:22:00,66.0,45.0,30.28,NW,326,4.0,10.0,46,0.00,,,0.00,,2013-10-13 17:22:00,
2013-10-13 13:52:00,67.0,43.0,30.28,WNW,288,6.0,12.0,42,0.00,,,0.00,,2013-10-13 17:52:00,
2013-10-13 14:12:00,67.0,43.0,30.27,NNE,26,2.0,10.0,42,0.00,,,0.00,,2013-10-13 18:12:00,
2013-10-13 14:22:00,68.0,44.0,30.27,NNW,332,6.0,11.0,42,0.00,,,0.00,,2013-10-13 18:22:00,
2013-10-13 14:42:00,67.0,41.0,30.27,WNW,294,7.0,11.0,38,0.00,,,0.00,,2013-10-13 18:42:00,
2013-10-13 14:52:00,68.0,42.0,30.26,NW,307,6.0,11.0,39,0.00,,,0.00,,2013-10-13 18:52:00,
2013-10-13 15:11:00,68.0,41.0,30.26,NNW,328,5.0,14.0,37,0.00,,,0.00,,2013-10-13 19:11:00,
2013-10-13 15:22:00,68.0,42.0,30.26,NW,320,3.0,11.0,39,0.00,,,0.00,,2013-10-13 19:22:00,
2013-10-13 15:42:00,68.0,41.0,30.26,NW,315,7.0,12.0,38,0.00,,,0.00,,2013-10-13 19:42:00,
2013-10-13 15:52:00,69.0,41.0,30.26,North,351,3.0,10.0,36,0.00,,,0.00,,2013-10-13 19:52:00,
2013-10-13 16:12:00,69.0,41.0,30.26,NW,320,2.0,13.0,36,0.00,,,0.00,,2013-10-13 20:12:00,
2013-10-13 16:22:00,69.0,42.0,30.26,WNW,294,10.0,13.0,37,0.00,,,0.00,,2013-10-13 20:22:00,
2013-10-13 16:43:00,69.0,44.0,30.25,NW,318,5.0,10.0,41,0.00,,,0.00,,2013-10-13 20:43:00,
2013-10-13 16:52:00,68.0,45.0,30.26,NW,308,4.0,12.0,43,0.00,,,0.00,,2013-10-13 20:52:00,
2013-10-13 17:11:00,68.0,44.0,30.26,WNW,303,4.0,11.0,42,0.00,,,0.00,,2013-10-13 21:11:00,
2013-10-13 17:22:00,68.0,43.0,30.26,NW,305,7.0,11.0,41,0.00,,,0.00,,2013-10-13 21:22:00,
2013-10-13 17:44:00,68.0,44.0,30.26,North,350,4.0,11.0,42,0.00,,,0.00,,2013-10-13 21:44:00,
2013-10-13 17:55:00,68.0,45.0,30.26,NW,309,4.0,8.0,43,0.00,,,0.00,,2013-10-13 21:55:00,
2013-10-13 18:13:00,67.0,43.0,30.26,NW,308,5.0,10.0,42,0.00,,,0.00,,2013-10-13 22:13:00,
2013-10-13 18:24:00,66.0,44.0,30.26,WNW,302,6.0,11.0,45,0.00,,,0.00,,2013-10-13 22:24:00,
2013-10-13 18:43:00,66.0,43.0,30.26,WNW,300,5.0,7.0,44,0.00,,,0.00,,2013-10-13 22:43:00,
2013-10-13 18:53:00,65.0,43.0,30.26,WNW,288,5.0,9.0,45,0.00,,,0.00,,2013-10-13 22:53:00,
2013-10-13 19:12:00,63.0,42.0,30.27,NW,306,3.0,6.0,47,0.00,,,0.00,,2013-10-13 23:12:00,
2013-10-13 19:22:00,61.0,42.0,30.27,NW,307,2.0,6.0,50,0.00,,,0.00,,2013-10-13 23:22:00,
2013-10-13 20:42:00,53.0,42.0,30.29,NW,317,2.0,4.0,65,0.00,,,0.00,,2013-10-14 00:42:00,
2013-10-13 20:52:00,53.0,43.0,30.30,NNW,327,2.0,5.0,68,0.00,,,0.00,,2013-10-14 00:52:00,
2013-10-13 21:11:00,53.0,43.0,30.30,NW,317,2.0,5.0,69,0.00,,,0.00,,2013-10-14 01:11:00,
2013-10-13 21:22:00,53.0,42.0,30.30,NW,320,3.0,6.0,67,0.00,,,0.00,,2013-10-14 01:22:00,
2013-10-13 21:42:00,52.0,42.0,30.31,NW,313,2.0,5.0,68,0.00,,,0.00,,2013-10-14 01:42:00,
2013-10-13 21:52:00,53.0,43.0,30.32,NW,310,4.0,7.0,68,0.00,,,0.00,,2013-10-14 01:52:00,
2013-10-13 22:12:00,52.0,43.0,30.32,NW,323,3.0,6.0,70,0.00,,,0.00,,2013-10-14 02:12:00,
2013-10-13 22:22:00,52.0,42.0,30.32,NNW,329,2.0,5.0,69,0.00,,,0.00,,2013-10-14 02:22:00,
2013-10-13 22:42:00,52.0,43.0,30.32,NNW,336,2.0,4.0,71,0.00,,,0.00,,2013-10-14 02:42:00,
2013-10-13 22:52:00,51.0,42.0,30.33,NNW,330,3.0,7.0,72,0.00,,,0.00,,2013-10-14 02:52:00,
2013-10-13 23:12:00,51.0,43.0,30.32,NW,317,3.0,6.0,74,0.00,,,0.00,,2013-10-14 03:12:00,
2013-10-13 23:22:00,50.0,43.0,30.32,NW,325,4.0,6.0,76,0.00,,,0.00,,2013-10-14 03:22:00,
2013-10-13 23:44:00,50.0,43.0,30.33,NW,321,3.0,5.0,76,0.00,,,0.00,,2013-10-14 03:44:00,
2013-10-13 23:55:00,49.0,42.0,30.33,NW,314,2.0,6.0,78,0.00,,,0.00,,2013-10-14 03:55:00,